Location: Canyam�s
(41.5996°N, 2.4450°E)
Time: 20:58:47
(UTC+00:00)

CZ-2C R/B - Pass Details

Date: 06 June 2020
Orbit: 785 x 870 km, 98.3° (Epoch: 04 July)

Event Time Altitude Azimuth Distance (km) Brightness Sun altitude
Rises 19:44:27 0° 15° (NNE) 3,467 6.2 -4.3°
Reaches altitude 10° 19:46:52 10° 18° (NNE) 2,525 5.4 -4.7°
Maximum altitude 19:52:29 69° 102° (ESE) 927 2.8 -5.6°
Drops below altitude 10° 19:58:01 10° 185° (S) 2,488 4.8 -6.4°
Sets 20:00:23 0° 188° (S) 3,411 5.5 -6.7°
